Regional Weather Roundup
Issued by NWS

Home | Current Version | Previous Version | Graphics & Text | Print | Product List | Glossary On
Versions: 1 2 3 4 5 6 7 8 9 10 11 12 13 14 15 16 17 18 19 20 21 22 23 24 25 26 27 28 29 30 31 32 33 34 35 36 37 38 39 40 41 42 43 44 45 46 47 48 49 50
000
ASUS43 KLMK 221502
RWRKY
KENTUCKY REGIONAL WEATHER ROUNDUP
NATIONAL WEATHER SERVICE LOUISVILLE KY
1000 AM EST THU FEB 22 2018

NOTE "FAIR" INDICATES FEW OR NO CLOUDS BELOW 12,000 FEET
WITH NO SIGNIFICANT WEATHER AND/OR OBSTRUCTIONS TO VISIBILITY.

KYZ001>023-026-027-061>063-070>075-221600-
WESTERN AND SOUTH CENTRAL KENTUCKY

CITY           SKY/WX    TMP DP  RH WIND       PRES   REMARKS
PADUCAH        CLOUDY    44  42  93 NE8       30.35S FOG
HENDERSON      CLOUDY    45  43  93 NE9       30.37R
OWENSBORO      CLOUDY    47  45  93 NE8       30.36R
HOPKINSVILLE   CLOUDY    48  48 100 NE3       30.34S FOG
BOWLING GREEN  CLOUDY    52  50  93 S3        30.35R
GLASGOW        NOT AVBL
$$

KYZ024-025-028>034-038-045-046-053-221600-
NORTH CENTRAL KENTUCKY

CITY           SKY/WX    TMP DP  RH WIND       PRES   REMARKS
LOUISVILLE/SDF LGT RAIN  44  41  89 N9        30.41R FOG
LOUISVILLE/LOU CLOUDY    44  43  96 N12       30.41R
FORT KNOX      LGT RAIN  44  43  99 N6        30.39R FOG
$$

KYZ035>037-039>044-047>052-055>060-089>105-221600-
NORTHEAST KENTUCKY

CITY           SKY/WX    TMP DP  RH WIND       PRES   REMARKS
LEXINGTON      CLOUDY    46  42  86 NE5       30.37R
COVINGTON      CLOUDY    42  40  92 NE10      30.44R FOG
FRANKFORT      LGT RAIN  44  40  85 N7        30.38R FOG
$$

KYZ054-064>069-076>088-106>120-221600-
SOUTHEAST KENTUCKY

CITY           SKY/WX    TMP DP  RH WIND       PRES   REMARKS
JACKSON        CLOUDY    51  51 100 VRB3      30.34F FOG
LONDON         PTSUNNY   64  61  90 S7        30.33F
SOMERSET       NOT AVBL
MIDDLESBORO    PTSUNNY   71  61  70 S8G16     30.37F
MONTICELLO     NOT AVBL
$$




USA.gov is the U.S. government's official web portal to all federal, state and local government web resources and services.